Regional Weather Roundup
Issued by NWS

Home | Current Version | Previous Version | Graphics & Text | Print | Product List | Glossary On
Versions: 1 2 3 4 5 6 7 8 9 10 11 12 13 14 15 16 17 18 19 20 21 22 23 24 25 26 27 28 29 30 31 32 33 34 35 36 37 38 39 40 41 42 43 44 45 46 47 48 49 50
000
ASUS43 KLSX 270659
RWRMO

WEATHER SUMMARY FOR MISSOURI
NATIONAL WEATHER SERVICE SPRINGFIELD MO
100 AM CST SAT DEC 27 2014

NOTE: "FAIR" INDICATES FEW OR NO CLOUDS BELOW 12,000 FEET WITH NO
       SIGNIFICANT WEATHER AND/OR OBSTRUCTIONS TO VISIBILITY.
       CURRENT SKY AND/OR WEATHER CONDITIONS ARE NOT AVAILABLE FOR
       CHILLICOTHE AND FARMINGTON.

MOZ001>031-035>038-043-044-053-054-270800-
...NORTHERN AND WESTERN MISSOURI...

CITY           SKY/WX    TMP DP  RH WIND       PRES   REMARKS
KANSAS CTY INT LGT RAIN  36  34  92 W9        30.03R FOG     WCI  29
KANSAS C DTWN  CLOUDY    39  33  79 W10       30.04R
LEE`S SUMMIT   CLOUDY    38  35  89 W12       30.03R
ST JOSEPH      CLOUDY    35  33  92 W8        30.04R WCI  29
CHILLICOTHE      N/A     42  38  85 W3        29.97F
KIRKSVILLE     CLOUDY    43  43 100 CALM      29.95F FOG

$$
MOZ066>068-077>081-088>096-101>105-270800-
...SOUTHWEST MISSOURI...

CITY           SKY/WX    TMP DP  RH WIND       PRES   REMARKS
SPRINGFIELD    CLOUDY    49  48  97 S12       30.01F FOG
JOPLIN         CLOUDY    44  43  96 W15G23    30.04R FOG

$$
MOZ032>034-039>042-045>050-055>058-069>072-270800-
...CENTRAL MISSOURI...

CITY           SKY/WX    TMP DP  RH WIND       PRES   REMARKS
COLUMBIA       CLOUDY    49  47  93 S12       29.98F
JEFFERSON CITY CLOUDY    50  46  86 SE3       30.01F
ROLLA          CLOUDY    46  44  93 S10       30.01F
SEDALIA        CLOUDY    53  49  86 SW13      29.97F
WARRENSBURG    CLOUDY    41  39  93 W14       30.01R FOG
OSAGE BEACH    CLOUDY    48  45  87 S8        30.01F

$$
MOZ051-052-059>065-270800-
...EAST CENTRAL MISSOURI...

CITY           SKY/WX    TMP DP  RH WIND       PRES   REMARKS
ST LOUIS INTL  CLOUDY    48  46  93 S9        30.05F
SPIRIT OF STL  CLOUDY    49  46  90 S7        30.04F
ST CHARLES     CLOUDY    48  46  93 S6        30.04F

$$
MOZ072>076-082>087-097>100-106>115-270800-
...SOUTH CENTRAL AND SOUTHEAST MISSOURI...

CITY           SKY/WX    TMP DP  RH WIND       PRES   REMARKS
CAPE GIRARDEAU LGT RAIN  47  42  83 SE6       30.13S
FARMINGTON     CLOUDY    45  45 100 SE8       30.09F
POPLAR BLUFF   LGT RAIN  47  44  90 SE5       30.10F FOG
WEST PLAINS    CLOUDY    47  45  93 S7        30.07F

$$



USA.gov is the U.S. government's official web portal to all federal, state and local government web resources and services.